Regional Weather Roundup
Issued by NWS Goodland, KS

Home | Current Version | Previous Version | Graphics & Text | Print | Product List | Glossary On
Versions: 1 2 3 4 5 6 7 8 9 10 11 12 13 14 15 16 17 18 19 20 21 22 23 24 25 26 27 28 29 30 31 32 33 34 35 36 37 38 39 40 41 42 43 44 45 46 47 48 49 50
000
ASUS43 KGLD 240108
RWRGLD

GOODLAND FORECAST AREA HOURLY WEATHER ROUNDUP
NATIONAL WEATHER SERVICE GOODLAND KS
700 PM MDT WED APR 23 2014

...OFFICIAL OBSERVATIONS...

CITY           SKY/WX    TMP DP  RH WIND       PRES   REMARKS
GOODLAND KS    MOCLDY    69  33  26 N31G43    29.53R
HILL CITY KS   TSTM      65  49  56 NW23G35   29.48R
IMPERIAL NEB   MOCLDY    66  22  18 N24G32    29.59R
MCCOOK NEB     TSTM      68  46  45 NE13      29.51R
AKRON CO       CLOUDY    47  37  68 N33G46    29.73R
BURLINGTON CO  CLOUDY    66  27  23 N33G45    29.57R
LIMON CO       CLOUDY    48  34  58 N37G47    29.64S
$$

...UNOFFICIAL OBSERVATIONS...

CITY           SKY/WX    TMP DP  RH WIND       PRES   REMARKS
COLBY KS       CLEAR     70  52  52 NW15      29.48S
LENORA KS        N/A     60  32  34 SE8         N/A
LEOTI KS         N/A     79  32  18 S7          N/A
NORTON KS      LGT RAIN  61  54  77 NE12      29.47F
OBERLIN KS     FAIR      66  48  52 NE16      29.44
SHARON SPRINGS   N/A     70  47  43 NE8G20      N/A
ST FRANCIS KS  MOCLDY    68  18  14 N29G37    29.58
WAKEENEY KS      N/A     76  42  29 MISG        N/A
TRENTON NEB      N/A     71  32  23 N14         N/A
KIT CARSON CO    N/A     67  33  28 MISG        N/A
$$



USA.gov is the U.S. government's official web portal to all federal, state and local government web resources and services.